Voltar ao catálogo

STARLINK-11484

AtivoComunicaçõesVLEO
NORAD 62277·PAYLOAD·🇺🇸 United States

Lançado Dec 8, 2024 de Cape Canaveral Space Force Station

Loading…

Próximas Passagens (próximas 24 horas)

TLE

AtualizadoSource: CelesTrak SupGP

Época: Sep 14, 2026, 13:46 UTC

1 62277C 24237L   26257.57409722  .00009422  00000+0  73262-4 0  2577
2 62277  43.0007 358.1885 0001660 281.2230 223.0583 15.70807097    17

Acompanhe STARLINK-11484 em tempo real com AllMySat

Download on the App Store